Point Mugu Nawc, CA

12:03 PM PDT on August 27, 2016 (GMT -0700)
Point Mugu Naval Air Station

Weather History for KNTD - February, 2013

Change the Weather History Date:

Monday, February 4, 2013

  Actual Average Record
Temperature  
Mean Temperature 54 °F -  
Max Temperature 62 °F 61 °F 88 °F (2001)
Min Temperature 46 °F 43 °F 37 °F (2011)
Degree Days  
Heating Degree Days 11    
Growing Degree Days 4 (Base 50)    
Moisture  
Dew Point 50 °F    
Average Humidity 87    
Maximum Humidity 100    
Minimum Humidity 66    
Precipitation  
Precipitation 0.00 in - - ()
Sea Level Pressure  
Sea Level Pressure 30.06 in    
Wind  
Wind Speed 4 mph (WNW)    
Max Wind Speed 9 mph    
Max Gust Speed -    
Visibility 6 miles    
Events Fog    
Averages and records for this station are not official NWS values.
T = Trace of Precipitation, MM = Missing Value Source: NWS Daily Summary

Daily Weather History Graph

Daily Weather History Graph

Search for Another Location

Airport or City:

Trip Planner

Search our weather history database for the weather conditions in past years. The results will help you decide how hot, cold, wet, or windy it might be!

Date:

Astronomy

Feb. 04, 2013 Rise Set
Actual Time 6:51 AM PST 5:30 PM PST
Civil Twilight 6:25 AM PST 5:56 PM PST
Nautical Twilight 5:55 AM PST 6:26 PM PST
Astronomical Twilight 5:25 AM PST 6:55 PM PST
Moon 1:29 AM PST (2/4) 12:01 PM PST (2/4)
Length of Visible Light 11h 31m
Length of Day
10h 39m
Last Quarter, 36% of the Moon is Illuminated
Feb 4
Last Quarter
Feb 9
New
Feb 17
First Quarter
Feb 25
Full
Mar 4
Last Quarter

Hourly Weather History & Observations

Time (PST) Temp. Windchill Dew Point Humidity Pressure Visibility Wind Dir Wind Speed Gust Speed Precip Events Conditions
12:54 AM 46.9 °F - 46.9 °F 100% 30.07 in - ENE 4.6 mph - N/A   Clear
2:54 AM 48.0 °F - 48.0 °F 100% 30.06 in - NE 3.5 mph - N/A   Clear
3:54 AM 46.9 °F - 46.9 °F 100% 30.06 in - NNE 4.6 mph - N/A   Partly Cloudy
4:06 AM 46.4 °F 44.3 °F 46.4 °F 100% 30.05 in - North 4.6 mph - N/A   Mostly Cloudy
4:54 AM 48.9 °F - 48.9 °F 100% 30.06 in - Calm Calm - N/A   Overcast
5:54 AM 48.9 °F - 48.9 °F 100% 30.05 in 0.1 mi NNE 4.6 mph - N/A Fog Fog
6:34 AM 46.4 °F 45.2 °F 46.4 °F 100% 30.06 in 0.2 mi North 3.5 mph - N/A Fog Fog
6:54 AM 46.0 °F 43.9 °F 46.0 °F 100% 30.07 in 0.1 mi NNE 4.6 mph - N/A Fog Fog
7:54 AM 48.0 °F - 48.0 °F 100% 30.09 in 0.2 mi Calm Calm - N/A Fog Fog
8:14 AM 48.2 °F - 48.2 °F 100% 30.09 in 2.5 mi Calm Calm - N/A Fog Patches of Fog
8:37 AM 51.8 °F - 51.8 °F 100% 30.09 in 7.0 mi Calm Calm - N/A Fog Patches of Fog
8:54 AM 53.1 °F - 52.0 °F 96% 30.10 in 7.0 mi East 4.6 mph - N/A   Clear
9:54 AM 57.9 °F - 49.1 °F 72% 30.12 in 7.0 mi Calm Calm - N/A   Clear
10:54 AM 62.1 °F - 50.7 °F 66% 30.11 in 7.0 mi SSW 5.8 mph - N/A   Clear
11:54 AM 61.0 °F - 50.5 °F 68% 30.09 in 7.0 mi SSW 6.9 mph - N/A Fog Patches of Fog
12:54 PM 61.0 °F - 50.9 °F 69% 30.06 in 7.0 mi WSW 6.9 mph - N/A   Partly Cloudy
1:54 PM 62.1 °F - 50.9 °F 67% 30.02 in 7.0 mi SW 6.9 mph - N/A   Partly Cloudy
2:54 PM 59.9 °F - 52.7 °F 77% 30.03 in 7.0 mi West 9.2 mph - N/A   Scattered Clouds
2:58 PM 60.8 °F - 53.6 °F 77% 30.02 in 7.0 mi WSW 6.9 mph - N/A   Mostly Cloudy
3:02 PM 60.8 °F - 53.6 °F 77% 30.02 in 7.0 mi WSW 9.2 mph - N/A   Mostly Cloudy
3:42 PM 60.8 °F - 53.6 °F 77% 30.02 in 7.0 mi West 6.9 mph - N/A   Scattered Clouds
3:54 PM 59.9 °F - 51.4 °F 74% 30.01 in 7.0 mi WSW 5.8 mph - N/A   Scattered Clouds
4:54 PM 62.2 °F - 50.9 °F 66% 30.01 in 7.0 mi West 6.9 mph - N/A   Partly Cloudy
5:54 PM 57.2 °F - 50.9 °F 79% 30.01 in 7.0 mi West 3.5 mph - N/A   Partly Cloudy
6:54 PM 55.0 °F - 54.0 °F 96% 30.03 in 7.0 mi Calm Calm - N/A   Clear
7:54 PM 56.5 °F - 51.6 °F 84% 30.05 in 7.0 mi NW 4.6 mph - N/A   Clear
8:54 PM 56.1 °F - 51.6 °F 85% 30.06 in 7.0 mi Calm Calm - N/A   Clear
9:54 PM 53.4 °F - 47.5 °F 80% 30.07 in 7.0 mi Calm Calm - N/A   Clear
10:54 PM 53.4 °F - 48.9 °F 85% 30.06 in 4.0 mi Calm Calm - N/A   Clear
11:26 PM 50.0 °F - 50.0 °F 100% 30.07 in - Calm Calm - N/A   Scattered Clouds
11:34 PM 48.2 °F - 48.2 °F 100% 30.07 in - Calm Calm - N/A   Mostly Cloudy
11:54 PM 50.0 °F - 50.0 °F 100% 30.07 in - North 3.5 mph - N/A   Overcast